Location: RyutenAO
(34.8939°N, 134.0022°E)
Time: 18:02:23
(UTC+09:00)

Tiangong - Visible Passes

Search period start: 30 November 2021 00:00
Search period end: 10 December 2021 00:00
Orbit: 380 x 384 km, 41.5° (Epoch: 29 November)

Date Brightness Start Highest point End Pass type
(mag) Time Alt. Az. Time Alt. Az. Time Alt. Az.
05 Dec 3.3 18:36:02 10° SSW 18:37:18 17° S 18:37:18 17° S visible
06 Dec 3.5 17:37:20 10° SSE 17:38:18 11° SE 17:39:16 10° ESE visible
06 Dec 4.2 19:11:33 10° WSW 19:12:12 15° WSW 19:12:12 15° WSW visible
07 Dec 1.7 18:11:20 10° SW 18:14:19 40° SSE 18:14:50 37° ESE visible
08 Dec 2.6 18:47:29 10° WSW 18:49:34 36° W 18:49:34 36° W visible
09 Dec 1.0 17:46:58 10° WSW 17:50:07 78° SSE 17:52:04 21° ENE visible
